Location: Azul
(36.7830°S, 59.8500°W)
Time: 17:55:18
(UTC-03:00)

N. Korean satellite - Visible Passes

Search period start: 14 July 2020 00:00
Search period end: 24 July 2020 00:00
Orbit: 453 x 506 km, 97.2° (Epoch: 14 July)

Date Brightness Start Highest point End Pass type
(mag) Time Alt. Az. Time Alt. Az. Time Alt. Az.
14 Jul 8.9 19:18:02 10° SSW 19:21:10 25° WSW 19:24:16 10° NW visible
15 Jul 7.5 18:51:47 10° S 18:55:29 54° WSW 18:59:08 10° NNW visible
16 Jul 6.7 18:25:55 10° SSE 18:29:41 65° E 18:33:24 10° N visible
17 Jul 9.6 19:34:31 10° SSW 19:36:54 16° WSW 19:39:17 10° WNW visible
18 Jul 9.2 06:06:02 10° N 06:06:13 11° N 06:06:13 11° N visible
18 Jul 8.5 19:07:52 10° S 19:11:17 33° WSW 19:14:38 10° NW visible
19 Jul 6.9 18:41:46 10° S 18:45:33 74° WSW 18:49:15 10° NNW visible
20 Jul 10.0 19:51:55 10° SW 19:52:35 10° WSW 19:53:16 10° WSW visible
21 Jul 9.1 06:22:07 10° NNW 06:22:21 11° NNW 06:22:21 11° NNW visible
21 Jul 9.2 19:24:08 10° SSW 19:27:01 21° WSW 19:29:52 10° WNW visible
22 Jul 9.2 05:55:56 10° N 05:56:19 13° N 05:56:19 13° N visible
22 Jul 7.9 18:57:44 10° S 19:01:21 43° WSW 19:04:53 10° NNW visible
23 Jul 6.6 18:31:47 10° SSE 18:35:35 81° E 18:39:16 10° N visible
